{"data":{"norad_id":64382,"epoch":"2026-09-20T22:32:55.372128Z","epoch_age_seconds":96576,"freshness":"FRESH","line1":"1 64382U 25127N   26263.93952977  .00118646  00000+0  90895-3 0  9999","line2":"2 64382  43.0010 347.3141 0000996 342.6115  17.4719 15.70998280 74214","mean_motion":15.7099828,"eccentricity":9.96e-5,"inclination_deg":43.001,"raan_deg":347.3141,"arg_perigee_deg":342.6115,"mean_anomaly_deg":17.4719,"bstar":0.00090895,"rev_number":7421,"period_min":91.661462544695,"perigee_km":355.37198139039,"apogee_km":356.71342998777,"semimajor_km":6734.1797056891,"source":"CELESTRAK","updated_at":"2026-09-21T09:00:35.324368Z"}}